Time,TemperatureF,DewpointF,PressureIn,WindDirection,WindDirectionDegrees,WindSpeedMPH,WindSpeedGustMPH,Humidity,HourlyPrecipIn,Conditions,Clouds,dailyrainin,SoftwareType,DateUTC
2013-09-16 00:00:00,52.8,49.7,30.13,NNW,345,0.0,7.0,89,0.00,,---,0.37,VWS V14.01,2013-09-16 05:00:00,
2013-09-16 00:30:00,51.9,48.5,30.14,NW,317,0.0,6.0,88,0.00,,---,0.00,VWS V14.01,2013-09-16 05:30:00,
2013-09-16 01:00:00,51.5,47.5,30.15,North,5,4.0,9.0,86,0.00,,---,0.00,VWS V14.01,2013-09-16 06:00:00,
2013-09-16 01:30:00,50.9,46.2,30.17,NNW,338,0.0,10.0,84,0.00,,---,0.00,VWS V14.01,2013-09-16 06:30:00,
2013-09-16 02:00:00,49.7,44.8,30.17,NNW,331,0.0,7.0,83,0.00,,---,0.00,VWS V14.01,2013-09-16 07:00:00,
2013-09-16 02:30:00,48.3,43.4,30.18,NE,45,0.0,9.0,83,0.00,,---,0.00,VWS V14.01,2013-09-16 07:30:00,
2013-09-16 03:00:00,46.6,42.0,30.19,NNW,333,0.0,11.0,84,0.00,,---,0.00,VWS V14.01,2013-09-16 08:00:00,
2013-09-16 03:30:00,45.5,41.3,30.20,North,350,0.0,2.0,85,0.00,,---,0.00,VWS V14.01,2013-09-16 08:30:00,
2013-09-16 04:00:00,44.8,40.6,30.20,North,360,0.0,7.0,85,0.00,,---,0.00,VWS V14.01,2013-09-16 09:00:00,
2013-09-16 04:30:00,44.0,40.1,30.21,North,355,0.0,6.0,86,0.00,,---,0.00,VWS V14.01,2013-09-16 09:30:00,
2013-09-16 05:00:00,43.2,39.6,30.21,North,355,0.0,0.0,87,0.00,,---,0.00,VWS V14.01,2013-09-16 10:00:00,
2013-09-16 05:30:00,42.7,39.4,30.23,North,5,0.0,2.0,88,0.00,,---,0.00,VWS V14.01,2013-09-16 10:30:00,
2013-09-16 06:00:00,42.3,39.0,30.24,NNW,342,0.0,3.0,88,0.00,,---,0.00,VWS V14.01,2013-09-16 11:00:00,
2013-09-16 06:30:00,42.0,39.0,30.25,North,5,0.0,2.0,89,0.00,,---,0.00,VWS V14.01,2013-09-16 11:30:00,
2013-09-16 07:00:00,42.2,38.9,30.25,North,355,0.0,5.0,88,0.00,,---,0.00,VWS V14.01,2013-09-16 12:00:00,
2013-09-16 07:30:00,43.8,40.2,30.26,North,360,0.0,6.0,87,0.00,,---,0.00,VWS V14.01,2013-09-16 12:30:00,
2013-09-16 08:00:00,46.3,41.7,30.26,ENE,57,0.0,7.0,84,0.00,,---,0.00,VWS V14.01,2013-09-16 13:00:00,
2013-09-16 08:30:00,49.0,43.8,30.27,NNW,334,6.0,9.0,82,0.00,,---,0.00,VWS V14.01,2013-09-16 13:30:00,
2013-09-16 09:00:00,51.8,45.5,30.28,West,273,0.0,8.0,79,0.00,,---,0.00,VWS V14.01,2013-09-16 14:00:00,
2013-09-16 09:30:00,54.3,46.9,30.28,SSE,161,0.0,9.0,76,0.00,,---,0.00,VWS V14.01,2013-09-16 14:30:00,
2013-09-16 10:00:00,56.4,48.6,30.28,SSW,213,0.0,5.0,75,0.00,,---,0.00,VWS V14.01,2013-09-16 15:00:00,
2013-09-16 10:30:00,56.7,48.2,30.29,SSE,151,3.0,6.0,73,0.00,,---,0.00,VWS V14.01,2013-09-16 15:30:00,
2013-09-16 11:00:00,58.4,49.4,30.28,South,171,3.0,11.0,72,0.00,,---,0.00,VWS V14.01,2013-09-16 16:00:00,
2013-09-16 11:30:00,59.3,48.8,30.29,WSW,248,0.0,10.0,68,0.00,,---,0.00,VWS V14.01,2013-09-16 16:30:00,
2013-09-16 12:00:00,60.5,49.5,30.29,SW,224,3.0,7.0,67,0.00,,---,0.00,VWS V14.01,2013-09-16 17:00:00,
2013-09-16 12:30:00,60.0,48.2,30.28,WSW,255,0.0,6.0,65,0.00,,---,0.00,VWS V14.01,2013-09-16 17:30:00,
2013-09-16 13:00:00,60.6,47.5,30.29,West,275,2.0,7.0,62,0.00,,---,0.00,VWS V14.01,2013-09-16 18:00:00,
2013-09-16 13:30:00,62.0,47.5,30.28,ESE,111,0.0,6.0,59,0.00,,---,0.00,VWS V14.01,2013-09-16 18:30:00,
2013-09-16 14:00:00,61.3,48.6,30.27,NNW,339,0.0,10.0,63,0.00,,---,0.00,VWS V14.01,2013-09-16 19:00:00,
2013-09-16 14:30:00,61.6,47.2,30.26,ESE,114,0.0,11.0,59,0.00,,---,0.00,VWS V14.01,2013-09-16 19:30:00,
2013-09-16 15:00:00,60.5,47.0,30.26,SSE,151,2.0,11.0,61,0.00,,---,0.00,VWS V14.01,2013-09-16 20:00:00,
2013-09-16 15:30:00,61.5,47.5,30.26,South,171,0.0,8.0,60,0.00,,---,0.00,VWS V14.01,2013-09-16 20:30:00,
2013-09-16 16:00:00,60.1,47.5,30.25,ESE,103,0.0,7.0,63,0.00,,---,0.00,VWS V14.01,2013-09-16 21:00:00,
2013-09-16 16:30:00,59.9,47.3,30.25,WNW,292,6.0,10.0,63,0.00,,---,0.00,VWS V14.01,2013-09-16 21:30:00,
2013-09-16 17:00:00,59.2,46.6,30.26,West,271,0.0,6.0,63,0.00,,---,0.00,VWS V14.01,2013-09-16 22:00:00,
2013-09-16 17:30:00,58.3,46.2,30.26,NW,313,0.0,6.0,64,0.00,,---,0.00,VWS V14.01,2013-09-16 22:30:00,
2013-09-16 18:00:00,57.5,46.2,30.26,ESE,123,0.0,6.0,66,0.00,,---,0.00,VWS V14.01,2013-09-16 23:00:00,
2013-09-16 18:30:00,55.1,45.5,30.25,SW,235,0.0,6.0,70,0.00,,---,0.00,VWS V14.01,2013-09-16 23:30:00,
2013-09-16 19:00:00,52.4,44.7,30.25,NNW,327,0.0,0.0,75,0.00,,---,0.00,VWS V14.01,2013-09-17 00:00:00,
2013-09-16 19:30:00,50.4,44.1,30.24,NNW,327,0.0,0.0,79,0.00,,---,0.00,VWS V14.01,2013-09-17 00:30:00,
2013-09-16 20:00:00,49.0,43.4,30.25,NNW,327,0.0,0.0,81,0.00,,---,0.00,VWS V14.01,2013-09-17 01:00:00,
2013-09-16 20:30:00,47.5,42.9,30.24,NNW,327,0.0,0.0,84,0.00,,---,0.00,VWS V14.01,2013-09-17 01:30:00,
2013-09-16 21:00:00,46.1,42.5,30.25,NNW,327,0.0,0.0,87,0.00,,---,0.00,VWS V14.01,2013-09-17 02:00:00,
2013-09-16 21:30:00,44.5,41.8,30.26,NNW,327,0.0,0.0,90,0.00,,---,0.00,VWS V14.01,2013-09-17 02:30:00,
2013-09-16 22:00:00,43.6,40.9,30.26,NNW,327,0.0,0.0,90,0.00,,---,0.00,VWS V14.01,2013-09-17 03:00:00,
2013-09-16 22:30:00,42.7,40.3,30.26,NNW,327,0.0,0.0,91,0.00,,---,0.00,VWS V14.01,2013-09-17 03:30:00,
2013-09-16 23:00:00,42.7,40.5,30.26,NNW,327,0.0,0.0,92,0.00,,---,0.00,VWS V14.01,2013-09-17 04:00:00,
2013-09-16 23:30:00,42.6,40.4,30.25,NNW,327,0.0,0.0,92,0.00,,---,0.00,VWS V14.01,2013-09-17 04:30:00,